Location: Culleoka
(33.1312°N, 96.4919°W)
Time: 02:57:05
(UTC+00:00)

Lacrosse 5 rocket - Pass Details

Date: 10 July 2022
Orbit: 456 x 628 km, 57.0° (Epoch: 09 August)

Event Time Altitude Azimuth Distance (km) Brightness Sun altitude
Rises 02:09:01 0° 306° (NW) 2,593 7.5 -6.5°
Reaches altitude 10° 02:11:27 10° 291° (WNW) 1,737 5.5 -6.9°
Maximum altitude 02:14:35 23° 238° (WSW) 1,151 3.3 -7.5°
Drops below altitude 10° 02:17:51 10° 185° (S) 1,814 3.7 -8.1°
Enters shadow 02:20:17 - 171° (S) 2,677 4.4 -8.5°
